{"data":{"norad_id":39240,"epoch":"2026-09-20T04:25:59.605824Z","epoch_age_seconds":60846,"freshness":"FRESH","line1":"1 39240U 13046B   26263.18471766  .00000034  00000+0  11888-3 0  9996","line2":"2 39240  63.3852 205.8105 0434789  11.8566 349.2309 13.45480967641110","mean_motion":13.45480967,"eccentricity":0.0434789,"inclination_deg":63.3852,"raan_deg":205.8105,"arg_perigee_deg":11.8566,"mean_anomaly_deg":349.2309,"bstar":0.00011888,"rev_number":64111,"period_min":107.02492531059,"perigee_km":764.27157781267,"apogee_km":1413.5914272417,"semimajor_km":7467.0685025272,"source":"CELESTRAK","updated_at":"2026-09-20T09:00:13.919520Z"}}